When you browse on this site, cookies collect data to enhance your experience and personalize the content and advertising you see.
Visit our Privacy Policy to learn more. By continuing to use the site, you agree to this use of cookies and data.
  • In Hungary
  • List of Countries
  • For 7 days
  • Water Temperature
  • Weather Map
  • News
  • Weather Widgets
  • user-avatar
    Login

    Hourly Weather Debowiec

    Today, 26 August, Monday

    Time Temperature Precipitation Wind Pressure Humidity
    00:00 +18°C° 0 mm 2 mps 758 mmHg 78%
    01:00 +17°C° 0 mm 2 mps 758 mmHg 79%
    02:00 +17°C° 0 mm 2 mps 758 mmHg 79%
    03:00 +17°C° 0 mm 2 mps 758 mmHg 79%
    04:00 +17°C° 0 mm 2 mps 758 mmHg 79%
    05:00 +17°C° 0 mm 2 mps 758 mmHg 77%
    06:00 +18°C° 0 mm 3 mps 758 mmHg 74%
    07:00 +19°C° 0 mm 3 mps 758 mmHg 72%
    08:00 +21°C° 0 mm 3 mps 758 mmHg 67%
    09:00 +24°C° 0 mm 3 mps 758 mmHg 62%
    10:00 +26°C° 0 mm 3 mps 758 mmHg 57%
    11:00 +26°C° 0 mm 3 mps 758 mmHg 54%
    12:00 +27°C° 0 mm 3 mps 758 mmHg 51%
    13:00 +28°C° 0 mm 3 mps 758 mmHg 48%
    14:00 +28°C° 0 mm 3 mps 757 mmHg 49%
    15:00 +28°C° 0 mm 3 mps 757 mmHg 50%
    16:00 +28°C° 0 mm 3 mps 756 mmHg 51%
    17:00 +26°C° 0 mm 3 mps 756 mmHg 57%
    18:00 +24°C° 0 mm 3 mps 756 mmHg 63%
    19:00 +21°C° 0 mm 3 mps 756 mmHg 69%
    20:00 +20°C° 0 mm 3 mps 756 mmHg 70%
    21:00 +19°C° 0 mm 3 mps 756 mmHg 72%
    22:00 +18°C° 0 mm 3 mps 756 mmHg 73%
    23:00 +18°C° 0 mm 3 mps 756 mmHg 75%

    Tomorrow, 27 August, Tuesday

    Time Temperature Precipitation Wind Pressure Humidity
    00:00 +18°C° 0 mm 3 mps 757 mmHg 78%
    01:00 +17°C° 0 mm 3 mps 757 mmHg 81%
    02:00 +17°C° 0 mm 3 mps 756 mmHg 83%
    03:00 +17°C° 0 mm 3 mps 756 mmHg 85%
    04:00 +17°C° 0 mm 3 mps 756 mmHg 87%
    05:00 +18°C° 0 mm 3 mps 756 mmHg 84%
    06:00 +19°C° 0 mm 4 mps 757 mmHg 81%
    07:00 +20°C° 0 mm 4 mps 757 mmHg 78%
    08:00 +22°C° 0 mm 4 mps 757 mmHg 72%
    09:00 +25°C° 0 mm 4 mps 757 mmHg 67%
    10:00 +27°C° 0 mm 4 mps 757 mmHg 61%
    11:00 +27°C° 0 mm 4 mps 757 mmHg 58%
    12:00 +28°C° 0 mm 4 mps 757 mmHg 55%
    13:00 +29°C° 0 mm 4 mps 757 mmHg 53%
    14:00 +29°C° 0 mm 4 mps 756 mmHg 54%
    15:00 +29°C° 0 mm 4 mps 756 mmHg 55%
    16:00 +29°C° 0 mm 4 mps 755 mmHg 56%
    17:00 +27°C° 0 mm 4 mps 755 mmHg 62%
    18:00 +25°C° 0 mm 4 mps 755 mmHg 69%
    19:00 +23°C° 0 mm 4 mps 755 mmHg 75%
    20:00 +22°C° 0 mm 4 mps 755 mmHg 75%
    21:00 +21°C° 0 mm 4 mps 756 mmHg 76%
    22:00 +21°C° 0 mm 4 mps 756 mmHg 76%
    23:00 +20°C° 0 mm 4 mps 756 mmHg 75%

    Day after tomorrow, 28 August, Wednesday

    Time Temperature Precipitation Wind Pressure Humidity
    00:00 +20°C° 0 mm 4 mps 756 mmHg 74%
    01:00 +20°C° 0 mm 4 mps 756 mmHg 74%
    02:00 +19°C° 0 mm 4 mps 755 mmHg 75%
    03:00 +19°C° 0 mm 4 mps 755 mmHg 77%
    04:00 +19°C° 0 mm 4 mps 755 mmHg 78%
    05:00 +19°C° 0 mm 5 mps 755 mmHg 77%
    06:00 +20°C° 0 mm 5 mps 755 mmHg 75%
    07:00 +21°C° 0 mm 5 mps 755 mmHg 74%
    08:00 +22°C° 0 mm 5 mps 755 mmHg 68%
    09:00 +25°C° 0 mm 5 mps 755 mmHg 61%
    10:00 +27°C° 0 mm 6 mps 755 mmHg 55%
    11:00 +28°C° 0 mm 6 mps 754 mmHg 53%
    12:00 +28°C° 0 mm 6 mps 754 mmHg 50%
    13:00 +29°C° 0 mm 6 mps 754 mmHg 48%
    14:00 +29°C° 0 mm 6 mps 754 mmHg 50%
    15:00 +29°C° 0 mm 5 mps 753 mmHg 52%
    16:00 +28°C° 0 mm 5 mps 753 mmHg 54%
    17:00 +27°C° 0 mm 5 mps 753 mmHg 59%
    18:00 +25°C° 0 mm 5 mps 753 mmHg 64%
    19:00 +23°C° 0 mm 4 mps 752 mmHg 69%
    20:00 +22°C° 0 mm 5 mps 753 mmHg 69%
    21:00 +22°C° 0 mm 5 mps 753 mmHg 70%
    22:00 +21°C° 0 mm 5 mps 753 mmHg 70%
    23:00 +21°C° 0 mm 5 mps 753 mmHg 71%

    29 August, Thursday

    Time Temperature Precipitation Wind Pressure Humidity
    00:00 +21°C° 0 mm 5 mps 753 mmHg 73%
    01:00 +20°C° 0 mm 5 mps 753 mmHg 74%
    02:00 +20°C° 0 mm 5 mps 752 mmHg 75%
    03:00 +20°C° 0 mm 5 mps 752 mmHg 76%
    04:00 +19°C° 0 mm 6 mps 752 mmHg 77%
    05:00 +20°C° 0.3 mm 6 mps 752 mmHg 76%
    06:00 +20°C° 0.3 mm 6 mps 752 mmHg 75%
    07:00 +20°C° 0.3 mm 6 mps 752 mmHg 74%
    08:00 +22°C° 0.5 mm 6 mps 752 mmHg 69%
    09:00 +24°C° 0.5 mm 6 mps 752 mmHg 64%
    10:00 +26°C° 0.5 mm 6 mps 752 mmHg 59%
    11:00 +27°C° 0.3 mm 6 mps 752 mmHg 56%
    12:00 +28°C° 0.3 mm 6 mps 751 mmHg 53%
    13:00 +29°C° 0.3 mm 6 mps 751 mmHg 50%
    14:00 +29°C° 0.1 mm 5 mps 751 mmHg 51%
    15:00 +29°C° 0.1 mm 5 mps 751 mmHg 53%
    16:00 +29°C° 0.1 mm 5 mps 750 mmHg 55%
    17:00 +27°C° 0 mm 4 mps 750 mmHg 59%
    18:00 +26°C° 0 mm 4 mps 750 mmHg 63%
    19:00 +23°C° 0 mm 4 mps 750 mmHg 68%
    20:00 +23°C° 0.1 mm 5 mps 750 mmHg 69%
    21:00 +22°C° 0.1 mm 5 mps 750 mmHg 70%
    22:00 +22°C° 0.1 mm 5 mps 751 mmHg 72%
    23:00 +21°C° 0.1 mm 5 mps 750 mmHg 74%

    30 August, Friday

    Time Temperature Precipitation Wind Pressure Humidity
    00:00 +21°C° 0.1 mm 4 mps 750 mmHg 76%
    01:00 +21°C° 0.1 mm 4 mps 750 mmHg 78%
    02:00 +20°C° 0.3 mm 4 mps 750 mmHg 81%
    03:00 +20°C° 0.3 mm 3 mps 750 mmHg 84%
    04:00 +19°C° 0.3 mm 3 mps 750 mmHg 87%
    05:00 +19°C° 0.2 mm 3 mps 751 mmHg 88%
    06:00 +20°C° 0.2 mm 3 mps 751 mmHg 88%
    07:00 +20°C° 0.2 mm 3 mps 751 mmHg 88%
    08:00 +21°C° 0.5 mm 3 mps 752 mmHg 88%
    09:00 +21°C° 0.5 mm 3 mps 752 mmHg 88%
    10:00 +21°C° 0.5 mm 4 mps 752 mmHg 88%
    11:00 +21°C° 0.1 mm 4 mps 753 mmHg 85%
    12:00 +21°C° 0.1 mm 5 mps 753 mmHg 83%
    13:00 +21°C° 0.1 mm 5 mps 753 mmHg 81%
    14:00 +21°C° 0 mm 5 mps 753 mmHg 80%
    15:00 +21°C° 0 mm 5 mps 753 mmHg 80%
    16:00 +20°C° 0 mm 5 mps 753 mmHg 79%
    17:00 +19°C° 0 mm 4 mps 753 mmHg 83%
    18:00 +17°C° 0 mm 3 mps 753 mmHg 87%
    19:00 +16°C° 0 mm 3 mps 754 mmHg 92%
    20:00 +16°C° 0 mm 2 mps 754 mmHg 92%
    21:00 +15°C° 0 mm 2 mps 754 mmHg 93%
    22:00 +15°C° 0 mm 2 mps 754 mmHg 93%
    23:00 +14°C° 0 mm 2 mps 754 mmHg 93%

    31 August, Saturday

    Time Temperature Precipitation Wind Pressure Humidity
    00:00 +14°C° 0 mm 1 mps 754 mmHg 92%
    01:00 +13°C° 0 mm 1 mps 754 mmHg 92%
    02:00 +13°C° 0 mm 1 mps 754 mmHg 92%
    03:00 +13°C° 0 mm 1 mps 754 mmHg 92%
    04:00 +12°C° 0 mm 1 mps 754 mmHg 92%
    05:00 +14°C° 0 mm 1 mps 754 mmHg 89%
    06:00 +15°C° 0 mm 1 mps 754 mmHg 87%
    07:00 +16°C° 0 mm 1 mps 754 mmHg 84%
    08:00 +18°C° 0 mm 1 mps 754 mmHg 76%
    09:00 +20°C° 0 mm 1 mps 754 mmHg 68%
    10:00 +22°C° 0 mm 1 mps 754 mmHg 60%
    11:00 +22°C° 0 mm 1 mps 754 mmHg 57%
    12:00 +23°C° 0 mm 1 mps 754 mmHg 53%
    13:00 +24°C° 0 mm 1 mps 754 mmHg 49%
    14:00 +23°C° 0 mm 2 mps 753 mmHg 51%
    15:00 +23°C° 0 mm 2 mps 753 mmHg 52%
    16:00 +23°C° 0 mm 2 mps 753 mmHg 53%
    17:00 +20°C° 0 mm 2 mps 753 mmHg 62%
    18:00 +18°C° 0 mm 2 mps 753 mmHg 70%
    19:00 +16°C° 0 mm 2 mps 753 mmHg 79%
    20:00 +15°C° 0 mm 2 mps 753 mmHg 80%
    21:00 +15°C° 0 mm 1 mps 753 mmHg 82%
    22:00 +14°C° 0 mm 1 mps 753 mmHg 84%
    23:00 +14°C° 0 mm 1 mps 753 mmHg 84%
    Show more